Gilze-Rijen, Netherlands

3:01 PM CEST on April 26, 2017 (GMT +0200)
Gilze-Rijen Air Base

Weather History for EHGR - February, 2013

Change the Weather History Date:

Friday, February 1, 2013

  Actual Average Record
Temperature  
Mean Temperature 40 °F -  
Max Temperature 46 °F 43 °F 55 °F (2002)
Min Temperature 35 °F 33 °F 14 °F (1998)
Degree Days  
Heating Degree Days 24    
Moisture  
Dew Point 40 °F    
Average Humidity 96    
Maximum Humidity 100    
Minimum Humidity 76    
Precipitation  
Precipitation 0.00 in - - ()
Sea Level Pressure  
Sea Level Pressure 29.50 in    
Wind  
Wind Speed 8 mph ()    
Max Wind Speed 14 mph    
Max Gust Speed -    
Visibility 5.4 miles    
Events Rain    
Averages and records for this station are not official NWS values.
T = Trace of Precipitation, MM = Missing Value Source: Averaged Metar Reports

Daily Weather History Graph

Daily Weather History Graph

Search for Another Location

Airport or City:

Trip Planner

Search our weather history database for the weather conditions in past years. The results will help you decide how hot, cold, wet, or windy it might be!

Date:

Astronomy

Feb. 01, 2013 Rise Set
Actual Time 8:18 AM CET 5:29 PM CET
Civil Twilight 7:42 AM CET 6:06 PM CET
Nautical Twilight 7:02 AM CET 6:46 PM CET
Astronomical Twilight 6:23 AM CET 7:25 PM CET
Moon No Moon Rise 9:57 AM CET (2/1)
Length of Visible Light 10h 23m
Length of Day
9h 11m
Waning Gibbous, 73% of the Moon is Illuminated
Feb 1
Waning Gibbous
Feb 3
Last Quarter
Feb 10
New
Feb 17
First Quarter
Feb 25
Full

Hourly Weather History & Observations

Time (CET) Temp. Windchill Dew Point Humidity Pressure Visibility Wind Dir Wind Speed Gust Speed Precip Events Conditions
12:25 AM 46.4 °F 41.1 °F 39.2 °F 76% 29.86 in 6.2 mi WSW 11.5 mph - N/A   Scattered Clouds
12:55 AM 44.6 °F 39.2 °F 39.2 °F 81% 29.86 in 6.2 mi WSW 10.4 mph - N/A   Mostly Cloudy
1:25 AM 44.6 °F 38.4 °F 39.2 °F 81% 29.86 in 6.2 mi WSW 12.7 mph - N/A   Partly Cloudy
1:55 AM 44.6 °F 39.2 °F 39.2 °F 81% 29.83 in 6.2 mi WSW 10.4 mph - N/A   Scattered Clouds
2:25 AM 44.6 °F 39.7 °F 39.2 °F 81% 29.83 in 6.2 mi WSW 9.2 mph - N/A   Partly Cloudy
2:55 AM 44.6 °F 40.7 °F 41.0 °F 87% 29.83 in 6.2 mi WSW 6.9 mph - N/A   Mostly Cloudy
3:25 AM 44.6 °F 40.7 °F 41.0 °F 87% 29.83 in 6.2 mi WSW 6.9 mph - N/A   Overcast
3:55 AM 46.4 °F 42.4 °F 41.0 °F 81% 29.80 in 6.2 mi SW 8.1 mph - N/A   Mostly Cloudy
4:25 AM 46.4 °F 41.9 °F 41.0 °F 81% 29.80 in 6.2 mi WSW 9.2 mph - N/A   Mostly Cloudy
4:55 AM 46.4 °F 42.4 °F 42.8 °F 87% 29.77 in 6.2 mi WSW 8.1 mph - N/A   Overcast
5:25 AM 46.4 °F 41.5 °F 42.8 °F 87% 29.77 in 6.2 mi SW 10.4 mph - N/A   Mostly Cloudy
5:55 AM 46.4 °F 41.5 °F 42.8 °F 87% 29.74 in 6.2 mi SW 10.4 mph - N/A   Mostly Cloudy
6:25 AM 46.4 °F 41.9 °F 42.8 °F 87% 29.74 in 5.6 mi SW 9.2 mph - N/A Rain Light Rain
6:55 AM 46.4 °F 41.9 °F 42.8 °F 87% 29.74 in 5.6 mi SW 9.2 mph - N/A Rain Light Rain
7:25 AM 44.6 °F 40.7 °F 41.0 °F 87% 29.71 in 6.2 mi WSW 6.9 mph - N/A   Drizzle
7:55 AM 44.6 °F 40.7 °F 41.0 °F 87% 29.68 in 6.2 mi SSW 6.9 mph - N/A   Light Drizzle
8:25 AM 44.6 °F 42.2 °F 41.0 °F 87% 29.68 in 6.2 mi SW 4.6 mph - N/A Rain Light Rain
8:55 AM 42.8 °F 40.1 °F 41.0 °F 93% 29.68 in 6.2 mi SW 4.6 mph - N/A Rain Light Rain
9:25 AM 42.8 °F 38.6 °F 41.0 °F 93% 29.65 in 5.6 mi SW 6.9 mph - N/A Rain Light Rain
9:55 AM 42.8 °F 39.3 °F 41.0 °F 93% 29.65 in 6.2 mi WSW 5.8 mph - N/A Rain Light Rain
10:25 AM 41.0 °F 37.1 °F 41.0 °F 100% 29.62 in 6.2 mi SSW 5.8 mph - N/A Rain Light Rain
10:55 AM 41.0 °F 35.8 °F 41.0 °F 100% 29.59 in 6.2 mi SSW 8.1 mph - N/A Rain Light Rain
11:25 AM 41.0 °F 35.8 °F 41.0 °F 100% 29.59 in 6.2 mi SSW 8.1 mph - N/A Rain Light Rain
11:55 AM 41.0 °F 36.4 °F 41.0 °F 100% 29.56 in 6.2 mi SSW 6.9 mph - N/A Rain Light Rain
12:25 PM 41.0 °F 35.8 °F 41.0 °F 100% 29.53 in 6.2 mi SSW 8.1 mph - N/A Rain Light Rain
12:55 PM 41.0 °F 35.8 °F 41.0 °F 100% 29.50 in 6.2 mi SSW 8.1 mph - N/A Rain Light Rain
1:25 PM 41.0 °F 35.2 °F 41.0 °F 100% 29.50 in 6.2 mi SSW 9.2 mph - N/A Rain Light Rain
1:29 PM 41.0 °F 35.2 °F 41.0 °F 100% 29.47 in 6.2 mi South 9.2 mph - N/A Rain Light Rain
1:42 PM 41.0 °F 37.1 °F 41.0 °F 100% 29.47 in 6.2 mi South 5.8 mph - N/A   Drizzle
1:55 PM 41.0 °F 37.1 °F 41.0 °F 100% 29.47 in 6.2 mi SSE 5.8 mph - N/A Rain Light Rain
1:59 PM 41.0 °F 37.1 °F 41.0 °F 100% 29.44 in 6.2 mi SSE 5.8 mph - N/A Rain Light Rain
2:25 PM 41.0 °F 37.1 °F 41.0 °F 100% 29.42 in 5.6 mi SSE 5.8 mph - N/A Rain Light Rain
2:35 PM 41.0 °F 37.1 °F 41.0 °F 100% 29.42 in 6.2 mi SE 5.8 mph - N/A Rain Light Rain Showers
2:38 PM 41.0 °F 37.1 °F 41.0 °F 100% 29.42 in 6.2 mi SE 5.8 mph - N/A Rain Light Rain Showers
2:47 PM 41.0 °F 37.1 °F 41.0 °F 100% 29.39 in 4.3 mi SE 5.8 mph - N/A Rain Light Rain
2:55 PM 41.0 °F 37.1 °F 41.0 °F 100% 29.39 in 4.3 mi SE 5.8 mph - N/A Rain Rain
3:02 PM 41.0 °F 37.1 °F 41.0 °F 100% 29.39 in 5.0 mi ESE 5.8 mph - N/A Rain Light Rain
3:06 PM 41.0 °F 37.1 °F 41.0 °F 100% 29.39 in 4.3 mi ESE 5.8 mph - N/A Rain Light Rain
3:11 PM 41.0 °F 37.1 °F 41.0 °F 100% 29.39 in 5.0 mi ESE 5.8 mph - N/A Rain Light Rain
3:15 PM 41.0 °F 38.0 °F 41.0 °F 100% 29.39 in 4.3 mi ESE 4.6 mph - N/A Rain Light Rain
3:25 PM 41.0 °F 38.0 °F 41.0 °F 100% 29.39 in 5.0 mi ESE 4.6 mph - N/A Rain Light Rain
3:29 PM 41.0 °F 39.0 °F 41.0 °F 100% 29.39 in 5.0 mi East 3.5 mph - N/A Rain Light Rain
3:34 PM 41.0 °F 39.0 °F 41.0 °F 100% 29.39 in 4.3 mi East 3.5 mph - N/A   Heavy Drizzle
3:55 PM 41.0 °F 38.0 °F 41.0 °F 100% 29.36 in 3.1 mi NE 4.6 mph - N/A Rain Light Rain Showers
4:14 PM 41.0 °F 37.1 °F 41.0 °F 100% 29.36 in - NNE 5.8 mph - N/A Rain Light Rain Showers
4:25 PM 41.0 °F 36.4 °F 41.0 °F 100% 29.36 in 2.8 mi NNE 6.9 mph - N/A Rain Light Rain
4:28 PM 41.0 °F 36.4 °F 41.0 °F 100% 29.36 in 2.2 mi NNE 6.9 mph - N/A Rain Light Rain
4:44 PM 41.0 °F 35.8 °F 41.0 °F 100% 29.36 in 2.5 mi North 8.1 mph - N/A Rain Light Rain
4:46 PM 41.0 °F 35.2 °F 41.0 °F 100% 29.36 in - North 9.2 mph - N/A Rain Light Rain
4:55 PM 41.0 °F 35.2 °F 41.0 °F 100% 29.36 in - North 9.2 mph - N/A Rain Light Rain
4:59 PM 41.0 °F 35.2 °F 41.0 °F 100% 29.36 in 3.1 mi North 9.2 mph - N/A Rain Light Rain Showers
5:12 PM 41.0 °F 35.2 °F 41.0 °F 100% 29.36 in 3.1 mi North 9.2 mph - N/A Rain Light Rain
5:25 PM 41.0 °F 34.7 °F 41.0 °F 100% 29.36 in 5.0 mi North 10.4 mph - N/A Rain Light Rain
5:33 PM 41.0 °F 33.5 °F 41.0 °F 100% 29.36 in 6.2 mi North 13.8 mph - N/A Rain Light Rain Showers
5:44 PM 39.2 °F 32.0 °F 39.2 °F 100% 29.36 in 6.2 mi North 11.5 mph - N/A Rain Light Rain
5:55 PM 39.2 °F 33.0 °F 39.2 °F 100% 29.36 in 6.2 mi North 9.2 mph - N/A   Light Drizzle
6:05 PM 39.2 °F 33.6 °F 39.2 °F 100% 29.36 in 6.2 mi NNW 8.1 mph - N/A   Light Drizzle
6:15 PM 39.2 °F 33.0 °F 39.2 °F 100% 29.36 in 6.2 mi NNW 9.2 mph - N/A   Drizzle
6:25 PM 39.2 °F 33.6 °F 39.2 °F 100% 29.36 in 6.2 mi NNW 8.1 mph - N/A   Light Drizzle
6:31 PM 39.2 °F 33.6 °F 39.2 °F 100% 29.36 in 6.2 mi NNW 8.1 mph - N/A   Mostly Cloudy
6:35 PM 39.2 °F 33.6 °F 39.2 °F 100% 29.36 in 6.2 mi NNW 8.1 mph - N/A   Mostly Cloudy
6:55 PM 39.2 °F 31.6 °F 39.2 °F 100% 29.36 in 6.2 mi North 12.7 mph - N/A   Overcast
7:25 PM 39.2 °F 32.0 °F 37.4 °F 93% 29.39 in 6.2 mi NNW 11.5 mph - N/A   Mostly Cloudy
7:55 PM 39.2 °F 32.5 °F 37.4 °F 93% 29.39 in 6.2 mi NNW 10.4 mph - N/A   Overcast
8:25 PM 39.2 °F 33.6 °F 37.4 °F 93% 29.39 in 6.2 mi NNW 8.1 mph - N/A   Overcast
8:55 PM 39.2 °F 32.5 °F 37.4 °F 93% 29.39 in 6.2 mi NNW 10.4 mph - N/A   Overcast
9:01 PM 37.4 °F 31.4 °F 37.4 °F 100% 29.39 in 6.2 mi NNW 8.1 mph - N/A   Mostly Cloudy
9:06 PM 37.4 °F 32.1 °F 37.4 °F 100% 29.39 in 6.2 mi NW 6.9 mph - N/A   Mostly Cloudy
9:14 PM 37.4 °F 32.8 °F 35.6 °F 93% 29.39 in 6.2 mi NW 5.8 mph - N/A   Scattered Clouds
9:25 PM 35.6 °F 31.7 °F 33.8 °F 93% 29.42 in 6.2 mi NW 4.6 mph - N/A   Mostly Cloudy
9:49 PM 37.4 °F 34.9 °F 37.4 °F 100% 29.42 in - West 3.5 mph - N/A   Overcast
9:55 PM 37.4 °F 34.9 °F 37.4 °F 100% 29.42 in - West 3.5 mph - N/A   Mostly Cloudy
10:03 PM 37.4 °F 33.8 °F 37.4 °F 100% 29.42 in - WSW 4.6 mph - N/A   Scattered Clouds
10:06 PM 37.4 °F 33.8 °F 37.4 °F 100% 29.42 in 2.5 mi WSW 4.6 mph - N/A   Mostly Cloudy
10:11 PM 37.4 °F 33.8 °F 37.4 °F 100% 29.42 in - WSW 4.6 mph - N/A   Mostly Cloudy
10:21 PM 37.4 °F 32.8 °F 37.4 °F 100% 29.42 in 2.5 mi West 5.8 mph - N/A   Overcast
10:25 PM 37.4 °F 32.8 °F 37.4 °F 100% 29.42 in 3.1 mi West 5.8 mph - N/A   Overcast
10:30 PM 37.4 °F 32.8 °F 37.4 °F 100% 29.42 in - West 5.8 mph - N/A   Overcast
10:34 PM 37.4 °F 32.8 °F 37.4 °F 100% 29.42 in 3.1 mi West 5.8 mph - N/A Rain Light Rain
10:55 PM 37.4 °F 33.8 °F 37.4 °F 100% 29.42 in 4.3 mi WSW 4.6 mph - N/A   Scattered Clouds
11:25 PM 37.4 °F 33.8 °F 37.4 °F 100% 29.42 in - WSW 4.6 mph - N/A   Mostly Cloudy
11:55 PM 35.6 °F 31.7 °F 35.6 °F 100% 29.42 in 0.9 mi West 4.6 mph - N/A   Overcast